Starlink 32139

operational
NORAD ID: 61510 Int'l Des: 2024-183 Owner: SPXS Country: US Constellation: starlink
LEOCIRCULAR

关于 Starlink 32139

正在加载描述...

实时位置

正在加载3D地球...

即将过境

高度历史

Altitude vs Time

uPlot chart will show altitude changes over time

两行轨道根数

1 61510U 24183B 25350.81811772 .00004094 00000-0 15027-3 0 9996
2 61510 53.1604 167.4426 0001206 74.1745 285.9389 15.30198642 66961
Epoch: Dec 16, 2025 • Age: 15 hours

当前状态

高度 491.0 km
速度 7.62 km/s
星下点 -44.42°S, 143.24°E
发射日期 Oct 15, 2024
运行时间 1.1 years
类型 internet

技术详情

分类 Payload
质量 730.00 kg
干质量 700.00 kg
总质量 730.00 kg
长度 0.30 m
直径 4.10 m
跨度 29.00 m
形状 Box + pan
制造商 SPXS
平台类型 Starlink V2M
阶段状态 In Orbit
所有者/国家 SPXS/US

大型星座

Loading constellations...